Home   Weather   Orlando   Past weeks

Flag for USA Past Weather in Orlando, Florida, USA — Yesterday and Last 2 Weeks

Now
84 °F

Broken clouds.


Feels Like: 85 °F
Forecast: 70 / 86 °F
Wind: 9 mph from South

Location: Orlando Executive Airport

Current Time: Apr 23, 2017 at 4:16:52 pm

Latest Report: Apr 23, 2017 at 2:53 pm


Visibility: 10 mi

Pressure: 29.82 "Hg

Humidity: 51%

Dew Point: 64 °F

Location of OrlandoLocation

Past Weather in Orlando — Graph

°F

Orlando Temperature Yesterday

Maximum temperature yesterday: 87 °F (at 2:53 pm)
Minimum temperature yesterday: 65 °F (at 5:53 am)
Average temperature yesterday: 76 °F

High & Low Weather Summary for the Past Weeks

 TemperatureHumidityPressure
High87 °F (Apr 21, 1:53 pm)94% (Apr 22, 5:53 am)30.29 "Hg (Apr 22, 5:53 am)
Low56 °F (Apr 9, 5:53 am)19% (Apr 8, 3:53 pm)29.82 "Hg (Apr 23, 2:53 pm)
Average73 °F61%30.14 "Hg
* Reported Apr 8 2:53 pm — Apr 23 2:53 pm, Orlando, Weather by CustomWeather, © 2017

Note: Actual official high and low records may vary slightly from our data, if they occured in-between our weather recording intervals... More about our weather records

Advertising

Orlando Weather History for the Previous 24 Hours

Scroll right to see more
 ConditionsComfort  
Time TempWeatherWind HumidityBarometerVisibility
2:53 pm
Sun, Apr 23
84 °FBroken clouds.9 mph51%29.82 "Hg10 mi
1:53 pm83 °FPassing clouds.5 mph57%29.84 "Hg10 mi
12:53 pm81 °FPartly sunny.8 mph65%29.87 "Hg10 mi
11:53 am82 °FPartly sunny.8 mph53%29.88 "Hg10 mi
10:53 am81 °FSunny.7 mph54%29.90 "Hg10 mi
9:53 am78 °FSunny.No wind66%29.89 "Hg10 mi
8:53 am76 °FSunny.No wind74%29.89 "Hg10 mi
7:53 am73 °FScattered clouds.3 mph79%29.89 "Hg10 mi
6:53 am73 °FOvercast.No wind79%29.88 "Hg10 mi
5:53 am73 °FOvercast.No wind76%29.88 "Hg10 mi
4:53 am73 °FOvercast.No wind76%29.89 "Hg10 mi
3:53 am73 °FPassing clouds.No wind76%29.89 "Hg10 mi
2:53 am73 °FClear.5 mph76%29.89 "Hg10 mi
1:53 am74 °FClear.6 mph74%29.91 "Hg10 mi
12:53 am74 °FClear.8 mph76%29.92 "Hg10 mi
11:53 pm
Sat, Apr 22
74 °FClear.8 mph79%29.93 "Hg10 mi
10:53 pm75 °FClear.9 mph74%29.92 "Hg10 mi
9:53 pm75 °FClear.9 mph76%29.92 "Hg10 mi
8:53 pm77 °FClear.15 mph69%29.90 "Hg10 mi
7:53 pm79 °FSunny.16 mph62%29.90 "Hg10 mi
6:53 pm81 °FLight rain. Overcast.17 mph58%29.90 "Hg10 mi
5:53 pm83 °FPartly sunny.16 mph55%29.89 "Hg10 mi
4:53 pm85 °FScattered clouds.12 mph48%29.89 "Hg10 mi
Weather by CustomWeather, © 2017

See weather overviewHow to use our weather pages